Showing default

TIMATION 1, 2847

Orbit data source: Space-Track

TIMATION 1, 2847 is a payload satellite owned by NRL (US) in LEO that was launched on Wed, 31 May 1967 UTC via a THOR SLV-2 AGENA D launch vehicle from the Air Force Western Test Range (AFWTR). Payload-class satellites include a variety of spacecraft equipped with specific instruments for various scientific and technological missions. These include communications satellites like Starlink; space stations such as the ISS; scientific satellites like the Hubble; Earth observation satellites from companies like Planet Labs, Umbra, and HawkEye 360; GPS; miniature CubeSats for education and research; and military/defense satellites.

Loading next visibility...
Identifier
2847, 1967-053E
Orbit
LEO
Country
Flag of USUS
Related business
Manufacturer
NRL
Mission
Defense Navigation
Bus & Motor
TIMATION, Unknown motor
Mass
39 kg wet, 39 kg dry
Launch date (UTC)
1967-05-31 (58 years ago)
Launch vehicle
THOR SLV-2 AGENA D
Launch site
Air Force Western Test Range (AFWTR)
Object type
Payload
Rocket body
Debris
Shape & HBR
Box, 0.4 m
Radar Cross Section
0.285 m², Medium (>0.1 m² and < 1m²)

Expand to show TLE details & history
Last TLE update: 18 hours ago

TLE from 18 hours ago
0 TIMATION 1
1 02847U 67053E   25259.56863173  .00000096  00000-0  97292-4 0  9992
2 02847  69.9634  79.9036 0004545  42.6474 317.4988 14.02826434975419
Epoch: 2025-09-16T13:38Z
TLE epoch observation values (Epoch: 2025-09-16T13:38:49.781Z)
Latitude
0.00006°
Longitude
-120.56086°
Altitude
883.908 km
Speed
7.412 km/s
True Right ascension
05h 19m 36s
True Declination
0° 00' 00"
Sunlit
Object was in daylight at epoch
Visualization orbit readout
Latitude
Unknown
Longitude
Unknown
Altitude
Unknown
Speed
Unknown
Apparent Right ascension
Unknown
Apparent Declination
Unknown
Sunlit
N/A
Visualization observer readout
Local Sidereal Time
00:05:12
Azimuth
Unknown
Elevation
Unknown
Doppler factor
Unknown
Orbital elements
Apogee altitude
885.364 km
Perigee altitude
878.765 km
Semi-major axis
7,260.202 km
Eccentricity
0.00045
Inclination
69.9634°
RAAN
79.9036°
Arg. of periapsis
42.6474°
True anomaly
317.4636°
Mean anomaly
317.4988°
Eccentric anomaly
317.4812°
Mean motion
3.50849 °/min
Orbital period
102.61 mins
BSTAR
0.000097292
Loading maneuver chart data...
Computing Atmospheric mass density...
Loading historical data...
Loading historical data...
Loading historical data...
Loading historical data...
Loading historical data...
Loading historical data...
Loading historical data...

Documentation

Showing up to 5 results
|